Kingsville NAS, TX

4:46 PM CDT on April 24, 2017 (GMT -0500)
Kingsville Naval Air Station

Weather History for KNQI - January, 2013

Change the Weather History Date:

Sunday, January 13, 2013

  Actual Average Record
Temperature  
Mean Temperature 62 °F -  
Max Temperature 73 °F 66 °F 82 °F (2017)
Min Temperature 51 °F 46 °F 28 °F (2012)
Degree Days  
Heating Degree Days 3    
Growing Degree Days 12 (Base 50)    
Moisture  
Dew Point 46 °F    
Average Humidity 69    
Maximum Humidity 97    
Minimum Humidity 42    
Precipitation  
Precipitation 0.04 in - - ()
Sea Level Pressure  
Sea Level Pressure 29.96 in    
Wind  
Wind Speed 15 mph (NNW)    
Max Wind Speed 24 mph    
Max Gust Speed 34 mph    
Visibility 9 miles    
Events Rain    
Averages and records for this station are not official NWS values.
T = Trace of Precipitation, MM = Missing Value Source: NWS Daily Summary

Daily Weather History Graph

Daily Weather History Graph

Search for Another Location

Airport or City:

Trip Planner

Search our weather history database for the weather conditions in past years. The results will help you decide how hot, cold, wet, or windy it might be!

Date:

Astronomy

Jan. 13, 2013 Rise Set
Actual Time 7:23 AM CST 5:57 PM CST
Civil Twilight 6:57 AM CST 6:22 PM CST
Nautical Twilight 6:29 AM CST 6:51 PM CST
Astronomical Twilight 6:00 AM CST 7:19 PM CST
Moon 8:37 AM CST (1/13) 8:20 PM CST (1/13)
Length of Visible Light 11h 24m
Length of Day
10h 34m
Waxing Crescent, 5% of the Moon is Illuminated
Jan 13
Waxing Crescent
Jan 18
First Quarter
Jan 26
Full
Feb 3
Last Quarter
Feb 10
New

Hourly Weather History & Observations

Time (CST) Temp. Dew Point Humidity Pressure Visibility Wind Dir Wind Speed Gust Speed Precip Events Conditions
12:56 AM 73.9 °F 70.0 °F 87% 29.70 in 8.0 mi South 8.1 mph - N/A   Overcast
1:56 AM 73.9 °F 70.0 °F 87% 29.72 in 8.0 mi SW 3.5 mph - N/A   Overcast
2:44 AM 73.4 °F 69.8 °F 88% 29.76 in 4.0 mi North - - 0.01 in Rain Light Rain
2:51 AM 66.2 °F 64.4 °F 94% 29.77 in 2.5 mi NW 23.0 mph 29.9 mph 0.03 in Rain Rain
2:56 AM 63.0 °F 62.1 °F 97% 29.77 in 3.0 mi NNW 24.2 mph 33.4 mph 0.04 in Rain Rain
3:15 AM 57.2 °F 55.4 °F 94% 29.79 in 5.0 mi NNW 23.0 mph 34.5 mph 0.00 in Rain Light Rain
3:56 AM 55.0 °F 53.1 °F 93% 29.81 in 8.0 mi North 20.7 mph 28.8 mph 0.00 in Rain Light Rain
4:10 AM 53.6 °F 51.8 °F 94% 29.82 in 9.0 mi North 23.0 mph 32.2 mph 0.00 in   Overcast
4:51 AM 51.8 °F 48.2 °F 88% 29.86 in 7.0 mi North 23.0 mph 29.9 mph 0.00 in Rain Light Rain
4:56 AM 51.1 °F 48.9 °F 92% 29.85 in 6.0 mi North 20.7 mph 29.9 mph 0.00 in Rain Light Rain
5:56 AM 51.1 °F 46.0 °F 83% 29.89 in 10.0 mi North 17.3 mph 27.6 mph 0.00 in Rain Light Rain
6:56 AM 51.1 °F 42.1 °F 71% 29.94 in 10.0 mi North 19.6 mph 26.5 mph N/A   Overcast
7:46 AM 51.8 °F 42.8 °F 71% 29.99 in 10.0 mi North 17.3 mph 23.0 mph N/A   Overcast
7:56 AM 51.1 °F 42.1 °F 71% 29.99 in 10.0 mi North 17.3 mph 24.2 mph N/A   Overcast
8:56 AM 51.1 °F 39.9 °F 66% 30.04 in 10.0 mi NNW 17.3 mph 26.5 mph N/A   Overcast
9:56 AM 52.0 °F 39.9 °F 63% 30.06 in 10.0 mi NNW 20.7 mph 25.3 mph N/A   Overcast
10:56 AM 53.1 °F 39.9 °F 61% 30.09 in 10.0 mi NNW 18.4 mph 24.2 mph N/A   Overcast
11:56 AM 55.9 °F 39.0 °F 53% 30.06 in 10.0 mi North 18.4 mph 24.2 mph N/A   Overcast
12:56 PM 59.0 °F 39.0 °F 48% 30.04 in 10.0 mi North 15.0 mph 23.0 mph N/A   Mostly Cloudy
1:56 PM 57.9 °F 37.0 °F 46% 30.03 in 10.0 mi North 18.4 mph 24.2 mph N/A   Mostly Cloudy
2:56 PM 57.9 °F 36.0 °F 44% 30.03 in 10.0 mi NNW 15.0 mph - N/A   Mostly Cloudy
3:56 PM 57.9 °F 35.1 °F 42% 30.03 in 10.0 mi North 12.7 mph - N/A   Mostly Cloudy
4:56 PM 57.0 °F 35.1 °F 44% 30.05 in 10.0 mi North 6.9 mph - N/A   Mostly Cloudy
5:56 PM 55.0 °F 36.0 °F 49% 30.06 in 10.0 mi North 8.1 mph - N/A   Mostly Cloudy
6:56 PM 53.1 °F 37.0 °F 55% 30.06 in 10.0 mi North 6.9 mph - N/A   Mostly Cloudy
7:56 PM 53.1 °F 37.0 °F 55% 30.09 in 10.0 mi North 5.8 mph - N/A   Overcast
8:56 PM 53.1 °F 37.9 °F 57% 30.09 in 10.0 mi North 10.4 mph - N/A   Overcast
9:56 PM 52.0 °F 37.0 °F 57% 30.09 in 10.0 mi North 12.7 mph - N/A   Overcast
10:56 PM 51.1 °F 37.0 °F 59% 30.09 in 10.0 mi North 11.5 mph - N/A   Overcast
11:56 PM 51.1 °F 37.0 °F 59% 30.10 in 10.0 mi NNE 9.2 mph - N/A   Overcast